Rechercher aéroport 
image banner adimage banner adimage banner ad
image banner ad

64CA - Tahoe Forest Hospital

Situé à Truckee, United States

ICAO - 64CA, IATA -

Données fournies par Airmate  

Information générale

Coordonnées: N39°19'27" W120°12'1"
Élévation : 5200 feet MSL.
Variation magnétique : 16° East
Voir autres Aéroports à California

Données opérationnelles

Special qualification required
Heure actuelle UTC:
Heure actuelle locale:
Météo à : KTRK - Truckee-Tahoe ( 5 km )
METAR: KTRK 292345Z AUTO 27080KT 10SM SCT110 26/06 A3025 FU
TAF: KTRK 292320Z 3000/3024 17010KT P6SM VCSH BKN080 FM300300 26005KT P6SM SCT080 BKN120 FM300500 VRB03KT P6SM SCT110 BKN180 FM302100 25007KT P6SM VCSH BKN150 PROB30 3021/3024 VRB20G40KT 4SM TSRA OVC025CB
Voir NOTAMs / SUP AIP / TFR affectant cet aéroport [VIEW]
Fréquences de communication: [VIEW]

Pistes:

Coordonnées de l'aéroport

Adresse: Truckee United States

Vue satellite de 64CA